Regional Weather Roundup
Issued by NWS

Home | Current Version | Previous Version | Text Only | Print | Product List | Glossary On
Versions: 1 2 3 4 5 6 7 8 9 10 11 12 13 14 15 16 17 18 19 20 21 22 23 24 25 26 27 28 29 30 31 32 33 34 35 36 37 38 39 40 41 42 43 44 45 46 47 48 49 50
000
ASUS43 KMKX 300200
RWRWI

WISCONSIN REGIONAL WEATHER ROUNDUP
NATIONAL WEATHER SERVICE MILWAUKEE/SULLIVAN WI
900 PM CDT WED JUL 29 2015

NOTE: "FAIR" INDICATES FEW OR NO CLOUDS BELOW 12,000 FEET WITH NO
SIGNIFICANT WEATHER AND/OR OBSTRUCTIONS TO VISIBILITY.

WIZ001-002-006>008-014>016-023>028-300300-
NORTHWEST WISCONSIN

CITY           SKY/WX    TMP DP  RH WIND       PRES   REMARKS
SUPERIOR ARPT  PTCLDY    72  54  52 W9        29.81S
ASHLAND        PTCLDY    72  55  55 W8        29.82R
HAYWARD        CLEAR     73  53  49 W5        29.88R
SIREN          PTCLDY    73  54  51 W5        29.90R
CUMBERLAND     PTCLDY    70  52  52 W7        29.91S
RICE LAKE      CLEAR     71  54  55 W7        29.92S
CHETEK         CLEAR     73  55  54 W5        29.91S
LADYSMITH      CLEAR     73  54  52 SW7       29.91S
EAU CLAIRE     NOT AVBL
MENOMONIE      CLEAR     74  55  50 W8        29.92S
NEW RICHMOND   PTCLDY    72  55  56 W7        29.94R
OSCEOLA        PTCLDY    73  55  53 W9        29.95R
$$

WIZ003>005-009-010-017-018-300300-
NORTH CENTRAL WISCONSIN

CITY           SKY/WX    TMP DP  RH WIND       PRES   REMARKS
MANITOWISH WTR CLOUDY    70  56  62 SW6       29.86S
ARBOR VITAE    CLOUDY    72  55  55 W7        29.87S
WOODRUFF       CLOUDY    72  55  55 W7        29.87S
RHINELANDER    PTCLDY    71  53  52 W10       29.89S
EAGLE RIVER    CLOUDY    71  51  49 W10       29.86S
LAND O LAKES   CLOUDY    71  53  52 W6        29.86F
PHILLIPS       PTCLDY    71  55  57 W8        29.88S
TOMAHAWK       PTCLDY    70  54  56 W7        29.90S
MEDFORD        CLEAR     69  56  61 W8        29.92S
MERRILL        NOT AVBL
$$

WIZ029-030-035-036-043>047-300300-
CENTRAL WISCONSIN

CITY           SKY/WX    TMP DP  RH WIND       PRES   REMARKS
WAUSAU         CLEAR     73  54  51 W13       29.90R
MOSINEE        PTCLDY    70  55  60 W8        29.92S
MARSHFIELD     PTCLDY    70  53  54 W8        29.93S
STEVENS POINT  PTCLDY    73  54  51 SW7       29.93S
WAUPACA        CLEAR     77  52  41 W8        29.92S
WAUTOMA        NOT AVBL
WISC RAPIDS    CLEAR     73  52  47 W6        29.95R
CAMP DOUGLAS   NOT AVBL
$$

WIZ011>013-019>022-031-037>040-048>050-300300-
NORTHEAST WISCONSIN

CITY           SKY/WX    TMP DP  RH WIND       PRES   REMARKS
ANTIGO         CLEAR     69  54  58 W7        29.91R
SHAWANO        CLEAR     77  52  42 W6        29.89S
OCONTO         CLEAR     72  56  57 SW5       29.86S
STURGEON BAY   CLEAR     73  55  53 SW6       29.89S
GREEN BAY      PTCLDY    71  56  58 SW6       29.89R
MANITOWOC      NOT AVBL
APPLETON       PTCLDY    73  50  43 W8        29.92R
CLINTONVILLE   CLEAR     73  50  43 W5        29.89S
OSHKOSH        CLEAR     74  54  49 W6        29.92R
$$

WIZ032>034-041-042-053>061-300300-
SOUTHWEST WISCONSIN

CITY           SKY/WX    TMP DP  RH WIND       PRES   REMARKS
LA CROSSE      CLEAR     76  54  46 W10       29.96S
SPARTA         CLEAR     74  52  46 W6        29.97R
VIROQUA        CLEAR     71  54  56 W6        30.00S
BOSCOBEL       CLEAR     73  55  53 SW6       30.00R
PRAIRIE DU CHI CLEAR     75  52  44 W3        30.00R
PLATTEVILLE    CLEAR     71  55  57 W7        30.03R
$$

WIZ056-057-062-063-064-067-068-300300-
SOUTH CENTRAL WISCONSIN

CITY           SKY/WX    TMP DP  RH WIND       PRES   REMARKS
REEDSBURG      CLEAR     73  55  51 SW6       29.97R
BARABOO/DELLS  CLEAR     73  50  44 W5        29.97R
LONE ROCK      NOT AVBL
MINERAL POINT  CLEAR     70  54  56 W6        30.02R
MADISON        CLEAR     75  52  44 VRB3      29.98R
MIDDLETON      CLEAR     74  50  42 W7        29.99R
WATERTOWN      CLEAR     72  56  57 W5        29.96R
MONROE         CLEAR     72  54  53 W12       30.01R
JANESVILLE     CLEAR     73  54  49 W10       29.99R
$$

WIZ051-052-058>065-066-070>072-300300-
SOUTHEAST WISCONSIN

CITY           SKY/WX    TMP DP  RH WIND       PRES   REMARKS
MILWAUKEE      PTCLDY    79  51  37 W9        29.95R
WAUKESHA       CLEAR     72  52  49 SW8       29.98R
MILWAUKEE/TIMM NOT AVBL
RACINE         CLEAR     75  53  46 W8        29.98R
BURLINGTON     CLEAR     69  53  56 W5        29.98R
KENOSHA        CLEAR     69  55  60 W8        29.98R
FOND DU LAC    CLEAR     74  54  49 W6        29.94R
SHEBOYGAN      PTCLDY    72  55  55 W8        29.93R
WEST BEND      CLEAR     73  52  46 W7        29.95R
JUNEAU         CLEAR     72  54  53 W9        29.97R
$$

LSZ147-162-300300-
LAKE SUPERIOR

STATION/POSITION TIME  TEMP    WIND        PRES    WAVE
                       AIR SEA DIR/SP/G            HT/PER
                 (UTC) (F)     (DEG/KT/KT) (MB)    (FT/S)
W MID LAKE BUOY  0050   61 55  220/ 12/ 12 1006.8R   4/ 6
DEVILS ISLAND    0100   69     240/ 22/ 24 1007.3S
PORT WING        0140   72     250/ 12/ 17 1009.5R
SAXON HARBOR     0140   74                 1008.8S
$$

LMZ867-665-643>646-300300-
LAKE MICHIGAN

STATION/POSITION TIME  TEMP    WIND        PRES    WAVE
                       AIR SEA DIR/SP/G            HT/PER
                 (UTC) (F)     (DEG/KT/KT) (MB)    (FT/S)
CHAMBERS ISLAND  0100   75     220/  5/ 10 1010.2S
S GREEN BAY BUOY 0100   70 67  270/  8/ 10 1012.7R
N MID LAKE BUOY  0050   74 70  280/ 14/ 16 1009.2R   3/ 4
NORTHPORT PIER   0100   78     280/  4/ 10 1010.2R
SISTER BAY       0144   76     310/ 11/ 13   N/A
ALGOMA LAKESHORE 0112          280/  3/  6   N/A
KEWAUNEE LAKESHO 0100   79                   N/A
SHEBOYGAN LAKESH 0100   81     280/ 11/ 14 1012.2R
PORT WASHINGTON  0100   81     250/  5/  9 1013.2S
ATWATER BUOY     0100   77     260/ 14/ 17 1014.7R
MILWAUKEE LAKESH 0100   81     270/ 12/ 15   N/A
KENOSHA   LAKESH 0100   81     260/ 11/ 16 1013.5R
$$

TC  - TEMPERATURE IN CELSIUS
VSB - VISIBILITY IN STATUTE MILES
WCI - WIND CHILL INDEX
HX  - HEAT INDEX




USA.gov is the U.S. government's official web portal to all federal, state and local government web resources and services.